Vertical_Velocity
15 5 -2 1 -5 -1 -2 -0 1 -3 3 -1 -2 -0 -0 -0 -2 2 4 4 3 -1
6 6 7 2 4 5 9 -4 -4 2 2 3 1 -3 -0 -2 -2 1 -2 -3 2 2
5 6 4 25 12 -2 -2 3 1 4 2 3 5 -1 1 3 2 -2 0 2 2 1
-0 9 3 3 8 25 3 2 -5 10 5 5 2 2 -3 5 1 -1 -2 2 -1 1
5 9 -1 5 -0 23 17 8 11 -1 0 4 4 3 1 -1 2 -1 1 3 -2 -1
7 2 14 0 -8 20 3 14 7 -4 7 1 -3 5 2 -0 3 3 1 -3 1 2
2 8 4 3 -6 19 10 10 6 5 8 1 4 4 -1 2 2 1 2 3 1 -1
-0 11 8 6 11 0 3 8 11 -3 1 10 -2 3 3 5 4 0 -1 -1 -4 -3
5 -2 3 8 9 -3 0 4 14 -1 2 7 1 1 -2 -4 -3 -2 -3 1 0 1
5 2 7 -5 11 -6 2 3 2 4 3 0 4 5 6 6 4 3 3 3 2 0
-2 1 -1 4 1 -3 7 1 5 3 2 6 7 6 4 5 2 2 1 1 2 2
3 -1 0 0 2 4 6 0 2 -0 -2 -1 3 5 1 4 1 -1 -1 -1 -1 2
1 2 -1 2 1 2 5 9 2 -2 -0 2 -0 -2 -4 -2 -1 -1 1 4 5 3
-4 -1 -3 -2 -1 -3 -3 1 0 8 3 4 9 3 3 -0 0 -1 -1 -1 -4 -3
Height
1403 1403 1409 1416 1422 1427 1432 1438 1444 1449 1454 1459 1464 1470 1476 1482 1488 1493 1498 1503 1507 1512
1394 1398 1403 1409 1415 1422 1427 1432 1439 1445 1450 1455 1461 1466 1473 1479 1483 1488 1494 1498 1503 1507
1387 1393 1397 1399 1408 1414 1420 1428 1434 1439 1445 1451 1457 1461 1468 1473 1478 1485 1489 1494 1499 1504
1385 1388 1392 1397 1399 1405 1413 1420 1426 1433 1439 1445 1451 1456 1462 1468 1473 1480 1486 1491 1495 1499
1386 1385 1389 1394 1398 1400 1403 1411 1420 1426 1433 1438 1445 1451 1458 1463 1470 1474 1479 1484 1489 1495
1391 1391 1391 1392 1395 1396 1401 1405 1413 1420 1427 1433 1441 1447 1453 1460 1466 1471 1476 1482 1488 1492
1397 1392 1391 1394 1397 1397 1400 1403 1408 1416 1424 1431 1438 1444 1450 1458 1462 1468 1473 1479 1485 1489
1399 1400 1400 1400 1400 1396 1405 1407 1412 1415 1425 1429 1436 1442 1448 1454 1459 1465 1470 1476 1480 1485
1412 1404 1412 1402 1400 1402 1410 1414 1413 1418 1427 1429 1435 1440 1445 1451 1457 1463 1469 1474 1479 1484
1415 1412 1406 1411 1407 1409 1417 1416 1417 1423 1427 1434 1437 1443 1447 1453 1458 1463 1468 1472 1476 1481
1421 1418 1415 1415 1413 1419 1421 1418 1422 1427 1432 1437 1439 1445 1449 1453 1458 1463 1468 1472 1476 1479
1427 1425 1425 1424 1422 1423 1421 1424 1428 1430 1435 1439 1442 1447 1449 1454 1458 1462 1467 1472 1476 1479
1433 1431 1430 1429 1427 1427 1428 1430 1431 1437 1441 1443 1445 1448 1452 1456 1459 1463 1467 1472 1476 1480
1438 1436 1435 1435 1433 1433 1435 1436 1439 1441 1442 1445 1447 1451 1453 1457 1460 1463 1467 1471 1475 1480